Weather History for KNLC - May, 2013

Change the Weather History Date:

Monday, May 27, 2013

  Actual Average (KHJO) Record (KHJO)
Temperature  
Mean Temperature 64 °F 71 °F  
Max Temperature 79 °F 87 °F 98 °F (2009)
Min Temperature 52 °F 56 °F 46 °F (1998)
Degree Days  
Heating Degree Days 0    
Month to date heating degree days  
Since 1 July heating degree days  
Cooling Degree Days 0    
Month to date cooling degree days  
Year to date cooling degree days  
Growing Degree Days 14 (Base 50)    
Moisture  
Dew Point 46 °F    
Average Humidity 51    
Maximum Humidity 71    
Minimum Humidity 27    
Precipitation  
Precipitation 0.00 in 0.01 in 0.04 in (2010)
Month to date precipitation 0.38  
Year to date precipitation 6.57  
Snow  
Snow 0.00 in - - ()
Month to date snowfall  
Since 1 July snowfall  
Snow Depth -    
Sea Level Pressure  
Sea Level Pressure 30.03 in    
Wind  
Wind Speed 15 mph (NNW)    
Max Wind Speed 23 mph    
Max Gust Speed 29 mph    
Visibility 10 miles    
Events      
T = Trace of Precipitation, MM = Missing Value Source: NWS Daily Summary

Daily Weather History Graph

Daily Weather History Graph

Search for Another Location

Airport or City:

Trip Planner

Search our weather history database for the weather conditions in past years. The results will help you decide how hot, cold, wet, or windy it might be!

Date:

Astronomy

May. 27, 2013 Rise Set
Actual Time 5:45 AM PDT 8:08 PM PDT
Civil Twilight 5:15 AM PDT 8:38 PM PDT
Nautical Twilight 4:39 AM PDT 9:15 PM PDT
Astronomical Twilight 3:59 AM PDT 9:55 PM PDT
Moon 10:54 PM PDT (5/27) 8:27 AM PDT (5/27)
Length of Visible Light 15h 22m
Length of Day
14h 23m
Waning Gibbous, 90% of the Moon is Illuminated
May 27
Waning Gibbous
May 31
Last Quarter
Jun 8
New
Jun 16
First Quarter
Jun 23
Full

Hourly Weather History & Observations

Time (PDT) Temp. Dew Point Humidity Pressure Visibility Wind Dir Wind Speed Gust Speed Precip Events Conditions
12:56 AM 61.0 °F 45.0 °F 56% 30.06 in 10.0 mi NNW 15.0 mph - N/A   Clear
1:56 AM 59.0 °F 44.1 °F 58% 30.06 in 10.0 mi NNW 16.1 mph - N/A   Clear
2:56 AM 57.0 °F 44.1 °F 62% 30.05 in 10.0 mi NW 13.8 mph - N/A   Clear
3:56 AM 54.0 °F 43.0 °F 66% 30.05 in 10.0 mi NNW 12.7 mph - N/A   Clear
4:56 AM 53.1 °F 43.0 °F 69% 30.05 in 10.0 mi NNW 11.5 mph - N/A   Clear
5:56 AM 52.0 °F 43.0 °F 71% 30.05 in 10.0 mi NNW 10.4 mph - N/A   Clear
6:56 AM 55.9 °F 45.0 °F 67% 30.06 in 10.0 mi NNW 10.4 mph - N/A   Clear
7:56 AM 61.0 °F 44.1 °F 54% 30.06 in 10.0 mi NNW 16.1 mph - N/A   Clear
8:56 AM 64.9 °F 43.0 °F 45% 30.08 in 10.0 mi NW 13.8 mph - N/A   Clear
9:56 AM 70.0 °F 42.1 °F 36% 30.07 in 10.0 mi North 13.8 mph 19.6 mph N/A   Clear
10:56 AM 72.0 °F 39.9 °F 31% 30.07 in 10.0 mi NW 13.8 mph - N/A   Clear
11:56 AM 75.0 °F 39.0 °F 27% 30.06 in 10.0 mi NNW 16.1 mph 20.7 mph N/A   Clear
12:56 PM 75.9 °F 41.0 °F 29% 30.04 in 10.0 mi NNW 15.0 mph 20.7 mph N/A   Clear
1:56 PM 77.0 °F 44.1 °F 31% 30.02 in 10.0 mi NNW 10.4 mph 20.7 mph N/A   Clear
2:56 PM 77.0 °F 45.0 °F 32% 30.01 in 10.0 mi NW 17.3 mph - N/A   Clear
3:56 PM 75.9 °F 51.1 °F 42% 30.01 in 10.0 mi North 17.3 mph - N/A   Clear
4:56 PM 77.0 °F 52.0 °F 42% 29.99 in 10.0 mi North 20.7 mph 27.6 mph N/A   Clear
5:56 PM 75.0 °F 51.1 °F 43% 29.97 in 10.0 mi North 21.9 mph 28.8 mph N/A   Clear
6:56 PM 73.0 °F 50.0 °F 44% 29.97 in 10.0 mi NNW 23.0 mph - N/A   Partly Cloudy
7:56 PM 70.0 °F 52.0 °F 53% 29.97 in 10.0 mi NNW 18.4 mph 28.8 mph N/A   Clear
8:56 PM 68.0 °F 53.1 °F 59% 29.97 in 10.0 mi NNW 18.4 mph - N/A   Clear
9:56 PM 64.9 °F 52.0 °F 63% 29.99 in 10.0 mi NNW 17.3 mph - N/A   Clear
10:56 PM 63.0 °F 52.0 °F 67% 29.99 in 10.0 mi NNW 17.3 mph - N/A   Clear
11:56 PM 61.0 °F 51.1 °F 70% 29.98 in 10.0 mi NNW 15.0 mph - N/A   Clear